Regional Weather Roundup
Issued by NWS Northern Indiana

Current Version | Previous Version | Text Only | Print | Product List | Glossary On
Versions: 1 2 3 4 5 6 7 8 9 10 11 12 13 14 15 16 17 18 19 20 21 22 23 24 25 26 27 28 29 30 31 32 33 34 35 36 37 38 39 40 41 42 43 44 45 46 47 48 49 50
000
ASUS43 KIWX 290010
RWRIWX

KIWX WEATHER ROUNDUP
NATIONAL WEATHER SERVICE NORTHERN INDIANA
800 PM EDT SUN AUG 28 2016

NOTE: "FAIR" INDICATES FEW OR NO CLOUDS BELOW 12,000 FEET WITH NO
SIGNIFICANT WEATHER AND/OR OBSTRUCTIONS TO VISIBILITY.

* THESE STATIONS ARE NOT UNDER NWS QUALITY CONTROL. THEY ALSO MAY NOT
  REPORT WEATHER SUCH AS PRECIPITATION OR FOG.

INZ001>027-290100-
NORTHERN INDIANA

CITY           SKY/WX    TMP DP  RH WIND       PRES   REMARKS
GARY*          MOCLDY    75  73  94 NE8       30.17F
VALPARAISO     CLOUDY    74  71  91 N3        30.18S
6HR MIN TEMP:  71; 6HR MAX TEMP:  80; 6HR PCP:  0.19;

MICHIGAN CITY* CLOUDY    73  70  88 CALM      30.18S
LAPORTE*       CLOUDY   N/A N/A N/A CALM      30.19S
                                      6HR PCP:  0.17;

KNOX*          CLOUDY    73  55  53 CALM      30.17S
SOUTH BEND     CLOUDY    76  72  87 N7        30.18S
6HR MIN TEMP:  76; 6HR MAX TEMP:  82;

GOSHEN         CLOUDY    74  70  87 CALM      30.17F
6HR MIN TEMP:  73; 6HR MAX TEMP:  86; 6HR PCP:  0.08;

MONTICELLO*    PTCLDY    75  64  69 E5        30.15S
6HR MIN TEMP:  74; 6HR MAX TEMP:  89;

LOGANSPORT*    PTCLDY    72  68  88 CALM      30.17S
ROCHESTER*     CLOUDY    77  72  83 CALM      30.18S
WARSAW*        CLOUDY    73  72  94 CALM      30.18R
ANGOLA*        CLEAR     72  72 100 CALM      30.18S
FORT WAYNE     LGT RAIN  74  67  78 E3        30.17F
6HR MIN TEMP:  74; 6HR MAX TEMP:  90; 6HR PCP: TRACE;

HUNTINGTON*    TSTM      72  70  93 N3        30.16F
6HR MIN TEMP:  72; 6HR MAX TEMP:  88; 6HR PCP:  0.08;

PERU/GRISSOM   MOCLDY    72  69  90 E6        30.16R
6HR MIN TEMP:  69; 6HR MAX TEMP:  90; 6HR PCP:  1.22;

MARION*        PTCLDY    72  67  84 E6        30.17F
6HR MIN TEMP:  51; 6HR MAX TEMP:  90;


$$
INZ028>050-290100-
CENTRAL INDIANA

CITY           SKY/WX    TMP DP  RH WIND       PRES   REMARKS
LAFAYETTE      CLEAR     73  72  96 NE3       30.13F
6HR MIN TEMP:  73; 6HR MAX TEMP:  90; 6HR PCP:  0.97;

KOKOMO*        PTCLDY    75  66  73 E6        30.16R
6HR MIN TEMP:  73; 6HR MAX TEMP:  90;

MUNCIE*        CLOUDY    78  69  73 NW8       30.18R THUNDER
6HR MIN TEMP:  78; 6HR MAX TEMP:  90;

INDIANAPOLIS   MOCLDY    81  70  69 NE6       30.14S
6HR MIN TEMP:  81; 6HR MAX TEMP:  91; 6HR PCP: TRACE;


$$
MIZ043>046-050>051-056>058-064>065-071>073-077>080-290100-
SOUTHWEST LOWER MICHIGAN

CITY           SKY/WX    TMP DP  RH WIND       PRES   REMARKS
BATTLE CREEK   PTCLDY    76  71  85 N7        30.18S
6HR MIN TEMP:  76; 6HR MAX TEMP:  83;

BENTON HARBOR  PTCLDY    75  67  76 CALM      30.18R
6HR MIN TEMP:  74; 6HR MAX TEMP:  82;

COLDWATER*     PTCLDY    76  74  96 CALM      30.18S
6HR MIN TEMP:  76; 6HR MAX TEMP:  86;

HILLSDALE*     MOCLDY    75  71  86 CALM      30.18R
6HR MIN TEMP:  51; 6HR MAX TEMP:  84;

HOLLAND        CLEAR     75  65  70 NW3       30.19S
6HR MIN TEMP:  75; 6HR MAX TEMP:  83;

GRAND RAPIDS   PTCLDY    78  66  66 N5        30.18S
6HR MIN TEMP:  78; 6HR MAX TEMP:  85;

KALAMAZOO      PTCLDY    80  69  69 N5        30.17S
6HR MIN TEMP:  80; 6HR MAX TEMP:  86;

STURGIS*       MOCLDY    74  71  88 CALM      30.17F
6HR MIN TEMP:  74; 6HR MAX TEMP:  84;

THREE RIVERS*  MOCLDY    77  72  83 CALM      30.17F

$$
OHZ001>008-015>018-024>025-290100-
NORTHWEST OHIO

CITY           SKY/WX    TMP DP  RH WIND       PRES   REMARKS
WAUSEON*       FAIR      75  75 100 SW3       30.16S
DEFIANCE       CLOUDY    76  70  82 SW3       30.16R
6HR MIN TEMP:  76; 6HR MAX TEMP:  88; 6HR PCP: TRACE;

FINDLAY        PTCLDY    81  67  62 E8        30.14F
6HR MIN TEMP:  81; 6HR MAX TEMP:  89;

TOLEDO EXPRESS LGT RAIN  76  74  93 CALM      30.15F
6HR MIN TEMP:  71; 6HR MAX TEMP:  88; 6HR PCP:  0.13;

TOLEDO METCALF CLOUDY    79  72  79 CALM      30.15F
6HR MIN TEMP:  74; 6HR MAX TEMP:  89; 6HR PCP:  0.15;

LIMA           LGT RAIN  73  71  93 SE8       30.16F
6HR MIN TEMP:  73; 6HR MAX TEMP:  88; 6HR PCP:  0.01;


$$
AND FOR LAKE MICHIGAN COASTAL AND OPEN LAKE BUOY OBSERVATIONS

STATION/POSITION TEMP    WIND        PRES    VSBY  WAVE
                 AIR SEA DIR/SP/G                  HT/PER
                 (F)     (DEG/KT/KT) (MB)    (MI)  (FT/S)
CALUMET HARBOR    73      50/  5/  6 1021.6R
MICHIGAN CITY     74      30/ 11/ 12   N/A
BURNS HARBOR      74      70/  6/  9 1022.0S
SAINT JOSEPH      75      40/  3/  8 1022.7R
SOUTH LAKE BUOY   73 75   50/  8/  8 1021.4F         1
4 MI NW BRIDGMAN  75 75   20/  8/ 10 1021.6R         2/ 3
MICHIGAN CITY     75 77   40/ 10/ 12   N/A           1/ 3

$$
&&




USA.gov is the U.S. government's official web portal to all federal, state and local government web resources and services.